�������l�o���
Date,Time,MP-1(��Sv/h),MP-2(��Sv/h),MP-3(��Sv/h),MP-4(��Sv/h),MP-5(��Sv/h),MP-6(��Sv/h),MP-7(��Sv/h),MP-8(��Sv/h),����,����(m/s),���J
2022/04/09,00:00,0.574,0.852,0.546,1.038,0.735,0.345,0.601,0.567,��,5.0,��
2022/04/09,00:10,0.574,0.851,0.547,1.036,0.737,0.344,0.602,0.567,��,5.0,��
2022/04/09,00:20,0.574,0.852,0.547,1.036,0.736,0.345,0.600,0.566,��,6.0,��
2022/04/09,00:30,0.574,0.851,0.546,1.037,0.735,0.345,0.601,0.565,��,7.0,��
2022/04/09,00:40,0.573,0.853,0.545,1.034,0.736,0.346,0.599,0.567,��,6.6,��
2022/04/09,00:50,0.573,0.851,0.546,1.034,0.736,0.347,0.602,0.564,��,5.8,��
2022/04/09,01:00,0.574,0.852,0.545,1.037,0.738,0.346,0.601,0.565,��쓌,3.9,��
2022/04/09,01:10,0.572,0.851,0.546,1.037,0.735,0.347,0.602,0.566,��쓌,3.2,��
2022/04/09,01:20,0.575,0.851,0.546,1.036,0.737,0.347,0.601,0.566,��쓌,3.4,��
2022/04/09,01:30,0.572,0.852,0.547,1.038,0.736,0.345,0.600,0.567,��쓌,3.7,��
2022/04/09,01:40,0.575,0.852,0.547,1.036,0.736,0.347,0.600,0.566,�쓌,2.8,��
2022/04/09,01:50,0.574,0.850,0.544,1.037,0.737,0.346,0.603,0.565,�쓌,1.7,��
2022/04/09,02:00,0.575,0.851,0.547,1.038,0.738,0.346,0.601,0.567,��,2.0,��
2022/04/09,02:10,0.573,0.851,0.546,1.036,0.737,0.347,0.601,0.566,��쐼,3.1,��
2022/04/09,02:20,0.574,0.850,0.547,1.038,0.736,0.347,0.601,0.565,��,3.9,��
2022/04/09,02:30,0.572,0.851,0.546,1.037,0.737,0.345,0.599,0.567,��,4.7,��
2022/04/09,02:40,0.572,0.851,0.545,1.035,0.737,0.346,0.600,0.567,��,6.3,��
2022/04/09,02:50,0.574,0.852,0.547,1.038,0.737,0.346,0.600,0.566,��,7.7,��
2022/04/09,03:00,0.573,0.851,0.546,1.039,0.736,0.347,0.600,0.566,��,8.0,��
2022/04/09,03:10,0.572,0.852,0.545,1.037,0.738,0.347,0.600,0.565,��,8.4,��
2022/04/09,03:20,0.573,0.851,0.545,1.039,0.735,0.346,0.600,0.567,��,10.6,��
2022/04/09,03:30,0.573,0.851,0.546,1.037,0.737,0.346,0.600,0.566,��,9.9,��
2022/04/09,03:40,0.573,0.853,0.545,1.038,0.736,0.346,0.601,0.567,��,9.2,��
2022/04/09,03:50,0.575,0.851,0.548,1.035,0.737,0.345,0.602,0.569,��,8.0,��
2022/04/09,04:00,0.573,0.852,0.546,1.038,0.737,0.347,0.602,0.568,��,7.3,��
2022/04/09,04:10,0.576,0.853,0.547,1.037,0.736,0.347,0.601,0.567,��쐼,8.7,��
2022/04/09,04:20,0.574,0.852,0.546,1.038,0.737,0.348,0.600,0.567,��,8.7,��
2022/04/09,04:30,0.574,0.851,0.546,1.037,0.737,0.347,0.602,0.567,��,7.6,��
2022/04/09,04:40,0.574,0.852,0.548,1.039,0.736,0.347,0.603,0.567,��,6.3,��
2022/04/09,04:50,0.573,0.849,0.545,1.038,0.737,0.345,0.602,0.565,��,6.2,��
2022/04/09,05:00,0.574,0.851,0.547,1.040,0.734,0.348,0.599,0.566,��,6.4,��
2022/04/09,05:10,0.574,0.849,0.546,1.036,0.736,0.345,0.602,0.565,��,5.5,��
2022/04/09,05:20,0.577,0.850,0.547,1.036,0.735,0.347,0.601,0.566,��,6.3,��
2022/04/09,05:30,0.576,0.851,0.546,1.039,0.735,0.347,0.601,0.565,��,6.5,��
2022/04/09,05:40,0.574,0.852,0.547,1.039,0.736,0.345,0.602,0.568,��,6.9,��
2022/04/09,05:50,0.574,0.851,0.547,1.038,0.736,0.347,0.600,0.567,��,7.2,��
2022/04/09,06:00,0.573,0.852,0.547,1.038,0.737,0.347,0.601,0.567,��,6.7,��
2022/04/09,06:10,0.575,0.850,0.548,1.040,0.737,0.347,0.602,0.567,��쐼,6.3,��
2022/04/09,06:20,0.574,0.850,0.547,1.038,0.739,0.346,0.601,0.567,��쐼,6.3,��
2022/04/09,06:30,0.577,0.851,0.546,1.040,0.736,0.346,0.602,0.567,��쐼,6.0,��
2022/04/09,06:40,0.576,0.851,0.548,1.040,0.736,0.347,0.602,0.568,��쐼,5.7,��
2022/04/09,06:50,0.575,0.854,0.548,1.039,0.739,0.347,0.602,0.567,��쐼,4.6,��
2022/04/09,07:00,0.575,0.856,0.549,1.038,0.736,0.348,0.602,0.567,��쐼,4.2,��
2022/04/09,07:10,0.575,0.854,0.548,1.038,0.735,0.346,0.602,0.567,��쐼,3.9,��
2022/04/09,07:20,0.577,0.850,0.547,1.039,0.737,0.349,0.602,0.567,��쐼,4.3,��
2022/04/09,07:30,0.577,0.852,0.548,1.037,0.738,0.348,0.603,0.569,��쐼,6.1,��
2022/04/09,07:40,0.577,0.850,0.548,1.040,0.738,0.347,0.602,0.568,��쐼,6.3,�L
2022/04/09,07:50,0.577,0.852,0.549,1.039,0.737,0.346,0.602,0.567,��쐼,6.6,��
2022/04/09,08:00,0.576,0.851,0.548,1.039,0.738,0.346,0.602,0.568,��쐼,7.2,��
2022/04/09,08:10,0.576,0.849,0.548,1.040,0.738,0.347,0.602,0.568,��쐼,7.7,��
2022/04/09,08:20,0.576,0.850,0.548,1.039,0.734,0.346,0.601,0.569,��쐼,9.0,��
2022/04/09,08:30,0.575,0.850,0.549,1.040,0.735,0.347,0.601,0.568,��쐼,9.3,��
2022/04/09,08:40,0.579,0.855,0.547,1.042,0.737,0.348,0.601,0.566,��쐼,7.1,��
2022/04/09,08:50,0.579,0.851,0.547,1.040,0.739,0.346,0.600,0.567,��,7.4,��
2022/04/09,09:00,0.576,0.852,0.549,1.039,0.737,0.349,0.603,0.566,��,7.3,��
2022/04/09,09:10,0.575,0.851,0.547,1.040,0.737,0.347,0.601,0.565,��,8.8,��
2022/04/09,09:20,0.576,0.852,0.549,1.040,0.738,0.347,0.603,0.566,��,7.6,��
2022/04/09,09:30,0.577,0.850,0.550,1.040,0.737,0.348,0.601,0.566,��,7.5,��
2022/04/09,09:40,0.576,0.852,0.549,1.040,0.739,0.347,0.602,0.565,��,8.8,��
2022/04/09,09:50,0.577,0.854,0.550,1.040,0.737,0.347,0.600,0.566,��,10.9,��
2022/04/09,10:00,0.576,0.853,0.548,1.039,0.737,0.349,0.602,0.565,��,10.6,��
2022/04/09,10:10,0.577,0.852,0.551,1.041,0.737,0.347,0.602,0.566,��쓌,10.5,��
2022/04/09,10:20,0.577,0.853,0.546,1.041,0.738,0.348,0.602,0.566,��쓌,10.3,��
2022/04/09,10:30,0.575,0.853,0.548,1.044,0.739,0.348,0.602,0.566,��,9.7,��
2022/04/09,10:40,0.578,0.853,0.548,1.042,0.740,0.349,0.600,0.566,��,9.9,��
2022/04/09,10:50,0.577,0.853,0.547,1.039,0.738,0.350,0.602,0.567,��,9.7,��
2022/04/09,11:00,0.576,0.853,0.549,1.042,0.740,0.347,0.601,0.567,��,9.5,��
2022/04/09,11:10,0.579,0.857,0.547,1.042,0.740,0.349,0.601,0.566,��,9.6,��
2022/04/09,11:20,0.578,0.854,0.549,1.042,0.739,0.349,0.601,0.565,��쓌,11.6,��
2022/04/09,11:30,0.578,0.855,0.548,1.044,0.742,0.349,0.602,0.567,��,11.3,��
2022/04/09,11:40,0.578,0.855,0.548,1.044,0.740,0.350,0.601,0.566,��,12.4,��
2022/04/09,11:50,0.577,0.856,0.549,1.041,0.743,0.349,0.602,0.569,��,12.8,��
2022/04/09,12:00,0.579,0.857,0.549,1.042,0.739,0.348,0.603,0.568,��,11.3,��
2022/04/09,12:10,0.579,0.855,0.547,1.043,0.740,0.349,0.602,0.568,��,13.1,��
2022/04/09,12:20,0.580,0.857,0.549,1.046,0.741,0.347,0.602,0.567,��쓌,11.4,��
2022/04/09,12:30,0.580,0.857,0.548,1.044,0.743,0.349,0.603,0.568,��,10.2,��
2022/04/09,12:40,0.581,0.858,0.549,1.045,0.742,0.349,0.602,0.568,��쓌,7.8,��
2022/04/09,12:50,0.578,0.857,0.551,1.043,0.744,0.349,0.604,0.566,��,7.6,��
2022/04/09,13:00,0.580,0.859,0.549,1.043,0.742,0.349,0.602,0.568,��,9.0,��
2022/04/09,13:10,0.580,0.856,0.550,1.045,0.744,0.350,0.602,0.569,��,8.8,��
2022/04/09,13:20,0.579,0.856,0.551,1.047,0.743,0.348,0.603,0.568,��쓌,10.2,��
2022/04/09,13:30,0.580,0.857,0.550,1.046,0.745,0.349,0.603,0.568,��쓌,9.6,��
2022/04/09,13:40,0.579,0.858,0.551,1.044,0.743,0.349,0.604,0.567,��쓌,11.6,��
2022/04/09,13:50,0.580,0.860,0.551,1.043,0.743,0.350,0.604,0.569,��,11.3,��
2022/04/09,14:00,0.579,0.858,0.550,1.046,0.745,0.350,0.604,0.568,��쓌,11.3,��
2022/04/09,14:10,0.579,0.859,0.550,1.043,0.744,0.349,0.602,0.569,��,10.8,��
2022/04/09,14:20,0.579,0.859,0.551,1.047,0.743,0.348,0.601,0.568,��,11.0,��
2022/04/09,14:30,0.581,0.857,0.549,1.045,0.745,0.350,0.602,0.567,��,10.7,��
2022/04/09,14:40,0.579,0.859,0.551,1.045,0.744,0.350,0.603,0.568,��,10.6,��
2022/04/09,14:50,0.580,0.857,0.550,1.047,0.744,0.350,0.603,0.567,��,11.6,��
2022/04/09,15:00,0.579,0.859,0.550,1.044,0.744,0.348,0.603,0.569,��,13.6,��
2022/04/09,15:10,0.580,0.859,0.553,1.046,0.745,0.349,0.603,0.567,��,10.2,��
2022/04/09,15:20,0.582,0.858,0.551,1.046,0.746,0.350,0.604,0.569,��,10.2,��
2022/04/09,15:30,0.581,0.858,0.550,1.045,0.746,0.350,0.603,0.567,��,10.6,��
2022/04/09,15:40,0.579,0.860,0.551,1.043,0.745,0.349,0.603,0.568,��,8.9,��
2022/04/09,15:50,0.581,0.858,0.551,1.042,0.744,0.349,0.604,0.569,��,7.5,��
2022/04/09,16:00,0.580,0.858,0.551,1.040,0.745,0.350,0.602,0.567,��,7.4,��
2022/04/09,16:10,0.579,0.857,0.550,1.045,0.744,0.349,0.604,0.567,��,6.7,��
2022/04/09,16:20,0.580,0.858,0.550,1.043,0.744,0.350,0.603,0.568,��,7.1,��
2022/04/09,16:30,0.581,0.856,0.551,1.043,0.743,0.348,0.604,0.569,��,8.1,��
2022/04/09,16:40,0.580,0.857,0.551,1.042,0.744,0.348,0.603,0.569,��,7.5,��
2022/04/09,16:50,0.578,0.858,0.550,1.044,0.746,0.350,0.603,0.569,��,7.2,��
2022/04/09,17:00,0.581,0.859,0.550,1.045,0.746,0.349,0.604,0.568,��,8.0,��
2022/04/09,17:10,0.580,0.858,0.552,1.044,0.745,0.350,0.604,0.568,��,8.5,��
2022/04/09,17:20,0.580,0.861,0.551,1.044,0.744,0.349,0.604,0.568,��,8.0,��
2022/04/09,17:30,0.580,0.860,0.551,1.044,0.745,0.351,0.603,0.569,��,7.9,��
2022/04/09,17:40,0.581,0.860,0.551,1.044,0.745,0.350,0.603,0.568,��,7.7,��
2022/04/09,17:50,0.581,0.859,0.550,1.045,0.741,0.351,0.603,0.570,��,7.7,��
2022/04/09,18:00,0.580,0.861,0.549,1.043,0.745,0.350,0.602,0.570,��,8.2,��
2022/04/09,18:10,0.582,0.859,0.550,1.045,0.743,0.352,0.603,0.571,��쐼,8.7,��
2022/04/09,18:20,0.583,0.860,0.550,1.046,0.744,0.350,0.601,0.570,��쐼,9.0,��
2022/04/09,18:30,0.582,0.860,0.550,1.047,0.744,0.350,0.603,0.571,��쐼,8.7,��
2022/04/09,18:40,0.583,0.863,0.551,1.047,0.746,0.352,0.603,0.569,��쐼,8.0,��
2022/04/09,18:50,0.583,0.862,0.553,1.046,0.746,0.351,0.603,0.570,��쐼,5.8,��
2022/04/09,19:00,0.581,0.862,0.553,1.046,0.746,0.352,0.602,0.571,��,4.2,��
2022/04/09,19:10,0.581,0.860,0.553,1.047,0.746,0.353,0.604,0.570,��,5.5,��
2022/04/09,19:20,0.580,0.861,0.553,1.047,0.746,0.351,0.606,0.569,��쐼,6.2,��
2022/04/09,19:30,0.583,0.861,0.553,1.045,0.747,0.350,0.605,0.569,��쐼,5.5,��
2022/04/09,19:40,0.583,0.864,0.553,1.046,0.746,0.352,0.605,0.570,��쐼,4.9,��
2022/04/09,19:50,0.582,0.862,0.552,1.047,0.748,0.350,0.605,0.569,�쐼,4.5,��
2022/04/09,20:00,0.583,0.859,0.554,1.047,0.744,0.350,0.604,0.570,�쐼,5.1,��
2022/04/09,20:10,0.582,0.860,0.554,1.046,0.746,0.350,0.605,0.568,�쐼,4.7,��
2022/04/09,20:20,0.582,0.859,0.553,1.045,0.746,0.350,0.604,0.570,�쐼,2.3,��
2022/04/09,20:30,0.582,0.861,0.552,1.047,0.746,0.351,0.604,0.569,�쐼,2.6,��
2022/04/09,20:40,0.582,0.861,0.552,1.047,0.745,0.350,0.603,0.570,���쐼,4.2,��
2022/04/09,20:50,0.581,0.859,0.552,1.048,0.745,0.351,0.603,0.569,���쐼,6.1,��
2022/04/09,21:00,0.580,0.862,0.551,1.046,0.746,0.349,0.604,0.570,���쐼,7.0,��
2022/04/09,21:10,0.580,0.861,0.552,1.045,0.746,0.352,0.603,0.569,���쐼,7.4,��
2022/04/09,21:20,0.581,0.863,0.551,1.046,0.745,0.351,0.602,0.570,�쐼,7.7,��
2022/04/09,21:30,0.581,0.862,0.551,1.046,0.747,0.351,0.604,0.568,�쐼,7.8,��
2022/04/09,21:40,0.583,0.859,0.554,1.047,0.746,0.352,0.604,0.569,���쐼,8.6,��
2022/04/09,21:50,0.580,0.862,0.552,1.047,0.747,0.351,0.605,0.570,�쐼,6.9,��
2022/04/09,22:00,0.583,0.863,0.552,1.045,0.744,0.350,0.602,0.570,�쐼,6.0,��
2022/04/09,22:10,0.583,0.862,0.554,1.046,0.746,0.351,0.605,0.571,�쐼,5.1,��
2022/04/09,22:20,0.583,0.862,0.553,1.047,0.746,0.350,0.603,0.570,�쐼,5.3,��
2022/04/09,22:30,0.584,0.861,0.551,1.047,0.746,0.351,0.605,0.570,�쐼,6.6,��
2022/04/09,22:40,0.584,0.861,0.554,1.046,0.746,0.352,0.604,0.570,�쐼,6.6,��
2022/04/09,22:50,0.581,0.861,0.553,1.047,0.747,0.351,0.605,0.568,�쐼,5.7,��
2022/04/09,23:00,0.582,0.862,0.552,1.047,0.746,0.351,0.604,0.569,���쐼,4.5,��
2022/04/09,23:10,0.581,0.860,0.551,1.047,0.744,0.351,0.603,0.568,�쐼,4.0,��
2022/04/09,23:20,0.583,0.862,0.552,1.049,0.745,0.350,0.604,0.569,�쐼,4.0,��
2022/04/09,23:30,0.580,0.859,0.552,1.046,0.745,0.350,0.604,0.569,�쐼,2.3,��
2022/04/09,23:40,0.580,0.860,0.552,1.047,0.745,0.351,0.602,0.569,��쐼,3.4,��
2022/04/09,23:50,0.582,0.860,0.552,1.047,0.745,0.350,0.603,0.570,��쐼,3.4,��
